Pearl, MS

5:10 PM CDT on October 01, 2016 (GMT -0500)
Jackson-Evers International

Weather History for KJAN - February, 2015

Change the Weather History Date:

Friday, February 20, 2015

  Actual Average Record
Temperature  
Mean Temperature 42 °F 51 °F  
Max Temperature 57 °F 62 °F 83 °F (1986)
Min Temperature 26 °F 40 °F 20 °F (1978)
Degree Days  
Heating Degree Days 23 14  
Month to date heating degree days 410 331  
Since 1 July heating degree days 1945 1883  
Cooling Degree Days 0 0  
Month to date cooling degree days 0 0  
Year to date cooling degree days 0 4  
Moisture  
Dew Point 27 °F    
Average Humidity 60    
Maximum Humidity 83    
Minimum Humidity 36    
Precipitation  
Precipitation 0.02 in 0.17 in 1.89 in (1953)
Month to date precipitation 1.85 3.44  
Year to date precipitation 6.57 8.41  
Sea Level Pressure  
Sea Level Pressure 30.20 in    
Wind  
Wind Speed 12 mph (SE)    
Max Wind Speed 29 mph    
Max Gust Speed 38 mph    
Visibility 10 miles    
Events Rain    
T = Trace of Precipitation, MM = Missing Value Source: NWS Daily Summary

Daily Weather History Graph

Daily Weather History Graph

Search for Another Location

Airport or City:

Trip Planner

Search our weather history database for the weather conditions in past years. The results will help you decide how hot, cold, wet, or windy it might be!

Date:

Astronomy

Feb. 20, 2015 Rise Set
Actual Time 6:38 AM CST 5:50 PM CST
Civil Twilight 6:13 AM CST 6:15 PM CST
Nautical Twilight 5:44 AM CST 6:43 PM CST
Astronomical Twilight 5:16 AM CST 7:12 PM CST
Moon 7:38 AM CST (2/20) 8:05 PM CST (2/20)
Length of Visible Light 12h 02m
Length of Day
11h 12m
Waxing Crescent, 5% of the Moon is Illuminated
Feb 20
Waxing Crescent
Feb 25
First Quarter
Mar 5
Full
Mar 13
Last Quarter
Mar 20
New

Hourly Weather History & Observations

Time (CST) Temp. Windchill Dew Point Humidity Pressure Visibility Wind Dir Wind Speed Gust Speed Precip Events Conditions
12:54 AM 30.9 °F - 7.0 °F 37% 30.32 in 10.0 mi Calm Calm - N/A   Clear
1:54 AM 28.0 °F 24.2 °F 10.0 °F 47% 30.32 in 10.0 mi ESE 3.5 mph - N/A   Clear
2:54 AM 30.9 °F 25.2 °F 9.0 °F 40% 30.31 in 10.0 mi ESE 5.8 mph - N/A   Overcast
3:54 AM 32.0 °F 25.6 °F 9.0 °F 38% 30.31 in 10.0 mi ESE 6.9 mph - N/A   Overcast
4:54 AM 32.0 °F 24.8 °F 8.1 °F 37% 30.30 in 10.0 mi SE 8.1 mph - N/A   Overcast
5:40 AM 32.0 °F 25.6 °F 9.0 °F 38% 30.31 in 10.0 mi SE 6.9 mph - N/A   Overcast
5:47 AM 32.0 °F 24.8 °F 8.1 °F 37% 30.31 in 10.0 mi SE 8.1 mph - 0.00 in Rain Light Freezing Rain
5:54 AM 32.0 °F 24.8 °F 8.1 °F 37% 30.32 in 10.0 mi SE 8.1 mph - 0.00 in Rain Light Freezing Rain
6:06 AM 30.9 °F 23.5 °F 16.0 °F 54% 30.31 in 7.0 mi SE 8.1 mph - 0.00 in Rain Light Freezing Rain
6:51 AM 30.2 °F 21.3 °F 19.4 °F 64% 30.29 in 10.0 mi SE 10.4 mph - 0.02 in   Overcast
6:54 AM 30.0 °F 21.1 °F 19.9 °F 66% 30.30 in 10.0 mi SE 10.4 mph - 0.02 in   Overcast
7:09 AM 30.0 °F 22.4 °F 19.0 °F 64% 30.29 in 10.0 mi SE 8.1 mph - N/A   Overcast
7:51 AM 32.0 °F 24.8 °F 17.6 °F 55% 30.30 in 10.0 mi SE 8.1 mph - 0.00 in Rain Light Freezing Rain
7:54 AM 32.0 °F 24.8 °F 17.1 °F 54% 30.31 in 10.0 mi SE 8.1 mph - 0.00 in Rain Light Freezing Rain
8:36 AM 32.0 °F 24.8 °F 19.0 °F 59% 30.30 in 10.0 mi SE 8.1 mph - 0.00 in   Overcast
8:54 AM 32.0 °F 25.6 °F 19.0 °F 59% 30.30 in 10.0 mi ESE 6.9 mph - 0.00 in Rain Light Freezing Rain
9:05 AM 33.1 °F 25.5 °F 19.0 °F 56% 30.29 in 10.0 mi SE 9.2 mph - 0.00 in   Overcast
9:54 AM 35.1 °F 25.9 °F 21.9 °F 59% 30.28 in 10.0 mi SE 13.8 mph - 0.00 in   Overcast
10:54 AM 39.9 °F 31.8 °F 21.9 °F 49% 30.26 in 10.0 mi SE 15.0 mph - N/A   Overcast
11:54 AM 45.0 °F 40.1 °F 23.0 °F 42% 30.22 in 10.0 mi SE 9.2 mph - N/A   Overcast
12:54 PM 46.9 °F - 27.0 °F 46% 30.18 in 10.0 mi SE 8.1 mph - N/A   Overcast
1:54 PM 48.9 °F - 28.9 °F 46% 30.15 in 10.0 mi SE 6.9 mph - N/A   Overcast
2:54 PM 53.1 °F - 33.1 °F 47% 30.13 in 10.0 mi SE 8.1 mph - N/A   Overcast
3:54 PM 54.0 °F - 35.1 °F 49% 30.11 in 10.0 mi SE 5.8 mph - N/A   Overcast
4:54 PM 55.9 °F - 45.0 °F 67% 30.09 in 10.0 mi SSE 11.5 mph - 0.00 in   Overcast
5:54 PM 55.9 °F - 44.1 °F 64% 30.07 in 10.0 mi SSE 17.3 mph 23.0 mph N/A   Overcast
6:54 PM 55.0 °F - 45.0 °F 69% 30.08 in 10.0 mi SSE 23.0 mph 29.9 mph N/A   Overcast
7:35 PM 55.0 °F - 45.0 °F 69% 30.08 in 10.0 mi SSE 17.3 mph 27.6 mph N/A   Overcast
7:54 PM 55.0 °F - 46.0 °F 72% 30.08 in 10.0 mi SSE 24.2 mph 32.2 mph N/A   Overcast
8:54 PM 55.0 °F - 46.9 °F 74% 30.06 in 10.0 mi SSE 21.9 mph 31.1 mph N/A   Overcast
9:20 PM 55.0 °F - 48.0 °F 77% 30.06 in 10.0 mi SSE 19.6 mph 32.2 mph N/A   Overcast
9:54 PM 54.0 °F - 48.0 °F 80% 30.04 in 10.0 mi SSE 21.9 mph 27.6 mph N/A   Overcast
10:35 PM 55.0 °F - 48.0 °F 77% 30.04 in 10.0 mi SSE 18.4 mph 28.8 mph N/A   Mostly Cloudy
10:54 PM 55.9 °F - 48.9 °F 77% 30.04 in 10.0 mi South 18.4 mph 27.6 mph N/A   Mostly Cloudy
11:54 PM 57.0 °F - 48.9 °F 74% 30.03 in 10.0 mi South 27.6 mph 36.8 mph N/A   Overcast